Location: *
(39.2717°N, 16.7692°E)
Time: 20:09:38
(UTC+00:00)

Daily predictions for brighter satellites

Satellite Brightness Start Highest point End
(mag) Time Altitude Azimuth Time Altitude Azimuth Time Altitude Azimuth
FALCON 9 R/B 4.2 17:13:57 10° WSW 17:19:43 42° SSE 17:47:25 10° ESE
Cosmos 2251 Rocket 3.8 17:47:27 10° SSW 17:52:48 78° WNW 17:58:13 10° NNE
STARLINK-1099 4.4 17:49:11 10° WNW 17:53:11 50° SW 17:57:11 10° SSE
ATLAS 2AS CENTAUR R/B 3.7 17:50:49 10° NNW 17:57:38 34° NE 18:03:54 10° ESE
USA 234 4.4 17:54:34 10° ENE 17:59:13 20° ESE 18:03:50 10° SSE
Cosmos 1908 4.3 17:56:23 10° SE 17:59:30 24° E 18:02:38 10° NE
CZ-4 R/B 3.3 17:56:24 10° SSW 17:59:51 31° W 18:03:18 10° NNW
CSL-04 Rocket 4.1 17:54:46 10° S 18:00:01 67° WSW 18:05:17 10° NNW
Cosmos 1437 3.4 17:58:26 10° NNE 18:01:10 30° ENE 18:03:53 10° SE
STARLINK-52 3.9 17:58:30 10° SSW 18:01:19 29° SE 18:04:09 10° ENE
YAOGAN 1 3.9 17:57:43 10° S 18:01:50 43° W 18:05:59 10° NNW
Cosmos 1943 3.2 17:56:17 10° SSW 18:01:56 87° ESE 18:07:38 10° NNE
Cosmos 1939 Rocket 4.4 17:58:17 10° SSW 18:01:58 39° W 18:05:38 10° NNW
Cosmos 2263 4.3 17:59:23 10° NNW 18:04:57 60° ENE 18:10:28 10° SE
Ariane Rocket 3.1 18:00:30 10° SSE 18:05:27 58° ENE 18:10:25 10° N
SeaSat 1 3.4 18:02:42 10° NNE 18:07:29 52° WNW 18:12:15 10° SW
HJ-1C 3.5 18:04:35 10° S 18:07:55 80° WSW 18:11:18 10° NNW
Cosmos 1140 Rocket 4.3 18:04:35 10° SSE 18:08:53 27° E 18:13:11 10° NE
IRS-1A Rocket 4.4 18:03:23 10° SSE 18:08:58 61° ENE 18:14:43 10° N
ATLAS 5 CENTAUR R/B 4.0 18:06:05 10° S 18:09:31 15° SE 18:14:20 11° ESE
Cosmos 1953 2.5 18:06:19 10° S 18:10:17 78° W 18:14:17 10° N
Cosmos 1656 Rocket 4.0 18:08:56 10° NNW 18:14:22 47° ENE 18:19:22 12° SE
IRIDIUM 104 4.3 18:09:21 10° N 18:14:32 66° E 18:19:42 10° SSE
Cosmos 1726 2.0 18:11:21 10° S 18:15:05 84° E 18:18:50 10° N
Aureole 2 Rocket 3.6 18:13:06 10° NNW 18:16:23 41° WSW 18:19:32 10° S
Meteor 2-10 4.1 18:11:36 10° S 18:17:02 85° E 18:22:41 10° N
Cosmos 2184 Rocket 4.1 18:11:04 10° N 18:17:17 60° E 18:23:22 10° SSE
COSMOS 2455 4.3 18:13:56 10° N 18:18:27 21° NE 18:22:02 13° E
Cosmos 2058 Rocket 4.0 18:15:20 10° SSE 18:19:11 29° E 18:23:03 10° NNE
Cosmos 614 Rocket 4.0 18:16:07 10° S 18:21:15 61° ESE 18:26:24 10° NNE
CZ-2C R/B 3.5 18:18:15 10° NE 18:22:32 26° E 18:26:51 10° SSE
IRIDIUM 114 4.3 18:18:27 10° N 18:23:42 81° E 18:28:54 10° S
ARGOS 3.2 18:19:10 10° SSE 18:24:28 63° ENE 18:29:47 10° N
Cosmos 1726 Rocket 3.6 18:22:54 10° S 18:27:12 56° E 18:31:33 10° NNE
FREGAT/IRIS 2.2 18:25:41 13° SSE 18:28:03 77° ENE 18:30:46 10° N
Resurs 01 Rocket 3.0 18:30:56 19° E 18:32:10 21° ENE 18:35:29 10° NNE
IRIDIUM 103 4.4 18:27:38 10° N 18:32:53 83° W 18:38:05 10° S
Nadezhda 1 Rocket 4.0 18:27:19 10° S 18:33:38 65° E 18:39:55 10° NNE
SL-24 R/B 3.9 18:31:18 10° NNE 18:35:08 47° E 18:38:41 10° S
USA 186 1.9 18:33:03 10° S 18:36:25 80° W 18:39:40 10° NNW
Cosmos 1825 Rocket 3.5 18:33:48 10° N 18:38:12 89° E 18:42:32 10° S
GEOS 3 Rocket 4.0 18:34:48 10° SSE 18:39:51 63° WSW 18:45:02 10° NW
Cosmos 2154 Rocket 4.1 18:33:39 10° N 18:39:55 57° E 18:45:39 12° SSE
SL-24 R/B - RUBIN 2 4.2 18:37:00 10° SSW 18:42:24 87° ESE 18:48:36 10° NNE
Cosmos 407 Rocket 3.3 18:37:25 10° SSW 18:42:34 80° ESE 18:47:42 10° NNE
Cosmos 676 Rocket 4.4 18:38:48 10° S 18:43:41 39° ESE 18:48:33 10° NE
Cosmos 921 Rocket 4.0 18:40:42 10° N 18:44:18 27° ENE 18:44:56 26° E
Cosmos 2228 3.2 18:41:41 10° SSW 18:45:57 73° W 18:50:17 10° N
SPOT 3 Rocket 3.6 18:43:53 19° SSE 18:47:32 59° ENE 18:52:38 10° N
Aureole 1 Rocket 4.3 18:43:04 10° SSW 18:50:57 85° WNW 18:57:12 10° NNE
Cosmos 1758 Rocket 4.3 18:47:43 10° NNW 18:51:55 51° W 18:56:05 10° S
SJ-6B 3.1 18:50:37 13° S 18:54:11 73° WSW 18:58:19 10° NNW
Cosmos 1461 3.8 18:50:02 10° NNW 18:54:20 40° NE 18:55:35 33° E
STARLINK-29 3.6 18:53:39 10° WSW 18:56:47 54° NW 18:58:47 20° NE
Cosmos 1606 Rocket 4.5 18:52:41 10° SSW 18:56:59 51° W 19:01:21 10° N
ATLAS 5 CENTAUR R/B 1.7 18:54:07 10° SW 18:58:10 71° NW 19:02:39 10° NNE
Cosmos 1953 Rocket 3.7 18:55:25 10° N 18:59:54 80° W 19:03:12 18° S
Cosmos 1954 Rocket 3.9 19:01:33 10° S 19:06:44 62° ESE 19:11:53 10° NNE
Abrixas rocket 4.1 19:09:20 10° NW 19:11:30 19° NNE 19:11:30 19° NNE
Cosmos 1300 2.9 19:17:24 54° NE 19:17:24 54° NE 19:20:32 10° NNE
NOSS 3-4 (A) 3.8 19:09:35 10° NNW 19:16:46 87° ENE 19:20:34 34° SE
NOSS 3-4 (C) 3.8 19:09:41 10° NNW 19:16:53 86° ENE 19:20:39 34° SE
FALCON 9 DEB 4.4 19:15:27 10° WSW 19:18:47 41° NW 19:20:16 26° NNE
SL-4 R/B 4.4 19:18:06 10° WNW 19:20:17 16° NNW 19:22:30 10° NNE
Cosmos 1340 Rocket 3.7 19:17:31 10° SSW 19:21:26 48° WNW 19:25:22 10° N
Hubble Space Telescope 3.1 19:19:42 10° SW 19:20:23 13° SSW 19:20:23 13° SSW
H-2A R/B 3.8 19:19:04 10° SSW 19:23:35 29° W 19:28:02 10° NW
Cosmos 2369 Rocket 4.5 19:19:49 10° NW 19:23:51 20° W 19:27:51 10° SW
MOS 1 Rocket 3.7 19:19:21 10° N 19:24:46 76° WNW 19:30:11 10° SSW
MetOp-B 4.2 19:33:00 57° E 19:33:17 58° ENE 19:38:33 10° N
Resurs 1-3 4.4 19:37:16 39° SW 19:38:23 48° W 19:42:39 10° NNW
USA 234 3.1 19:36:10 10° NE 19:42:44 86° SE 19:49:18 10° SW
ATLAS 2AS CENTAUR R/B 3.2 19:41:44 10° NW 19:48:56 56° WSW 19:51:22 38° S
Meteor 2-1 Rocket 4.3 19:56:24 70° ENE 19:56:24 70° ENE 20:01:51 10° NNE
Spot 2 Rocket 3.6 19:56:54 68° N 19:56:54 68° N 20:01:24 10° N
Cosmos 2341 Rocket 4.4 19:51:22 10° NNW 19:57:40 63° W 19:59:56 40° SSW
CZ-2C R/B 4.0 19:58:11 10° N 20:02:51 35° WNW 20:07:33 10° SW
COSMOS 2455 2.9 19:58:57 10° NNW 20:04:57 70° WSW 20:05:12 69° SW
Cosmos 1697 Rocket 4.4 20:00:41 10° N 20:04:03 22° NE 20:04:03 22° NE
Resurs 01 Rocket 3.0 20:08:30 33° W 20:08:30 33° W 20:12:26 10° NNW
Cosmos 2218 Rocket 3.9 20:05:51 10° N 20:12:04 79° W 20:12:18 78° WSW
ERS-1 Rocket 4.2 20:27:20 36° N 20:27:20 36° N 20:30:17 10° N
Cosmos 1980 Rocket 4.2 20:30:04 10° N 20:32:34 19° NNE 20:32:34 19° NNE
Terra 3.9 20:42:27 22° N 20:42:27 22° N 20:44:13 10° N
CZ-4C R/B 3.7 21:36:54 10° NNW 21:42:00 47° N 21:42:00 47° N
